Regional Weather Roundup
Issued by NWS Mobile, AL

Home | Current Version | Previous Version | Text Only | Print | Product List | Glossary On
Versions: 1 2 3 4 5 6 7 8 9 10 11 12 13 14 15 16 17 18 19 20 21 22 23 24 25 26 27 28 29 30 31 32 33 34 35 36 37 38 39 40 41 42 43 44 45 46 47 48 49 50
000
ASUS44 KMOB 270810
RWRMOB
REGIONAL WEATHER ROUNDUP
NATIONAL WEATHER SERVICE MOBILE AL
200 AM CST FRI FEB 27 2015

NOTE: "FAIR" INDICATES FEW OR NO CLOUDS BELOW 12,000 FEET WITH NO
      SIGNIFICANT WEATHER AND/OR OBSTRUCTIONS TO VISIBILITY.

  * THESE STATIONS ARE PART OF THE UNIVERSITY OF SOUTH ALABAMA
    MESONET AND ARE NOT UNDER NWS OR FAA QUALITY CONTROL.

ALZ061>064-270900-
COASTAL ALABAMA

CITY           SKY/WX    TMP DP  RH WIND       PRES   REMARKS
MOBILE REG APT PTCLDY    34  29  82 N10       30.29R WCI  26
BROOKLEY FIELD PTCLDY    37  31  78 N13       30.30R
USA CAMPUS*      N/A     36  30  80 CALM      30.29R
DOG RIVER*     NOT AVBL


CITY           SKY/WX    TMP DP  RH WIND       PRES   REMARKS
MOUNT VERNON*    N/A     32  28  86 CALM      30.30R
SARALAND*      NOT AVBL
BAY MINETTE*   NOT AVBL
LOXLEY*          N/A     36  32  87 N9        30.27R
ROBERTSDALE*     N/A     36  32  87 N3        30.27R
FAIRHOPE*        N/A     36  30  80 VRB10     30.27R
ELBERTA*         N/A     37  34  87 N6        30.25R
FOLEY*         NOT AVBL
GRAND BAY*       N/A     36  30  80 N8        30.27R
DAUPHIN ISLND* NOT AVBL
BON SCOUR NWR* NOT AVBL
GULF SHORES    CLOUDY    37  33  84 N5        30.26R

$$

ALZ051>060-270900-
INTERIOR SOUTHWEST AND SOUTH CENTRAL ALABAMA

CITY           SKY/WX    TMP DP  RH WIND       PRES   REMARKS
GREENVILLE     PTCLDY    32  28  85 N7        30.25R WCI  26
EVERGREEN      PTCLDY    32  30  92 NW3       30.28R
CASTLEBERRY*   NOT AVBL
ATMORE*          N/A     34  32  93 N12       30.29R WCI  25
DIXIE*           N/A     32  30  93 CALM      30.21S
ANDALUSIA/OPP  MOCLDY    36  30  79 N3        30.24S
ANDALUSIA*       N/A     32  30  93 N5        30.23R WCI  27
FLORALA APT    CLOUDY    34  31  88 NW3       30.25S
FLORALA*         N/A     34  32  93 N2        30.20S

$$

FLZ001>006-270900-
WESTERN FLORIDA PANHANDLE

CITY           SKY/WX    TMP DP  RH WIND       PRES   REMARKS
PENSACOLA      CLOUDY    37  31  78 N9        30.25R
NAS PENSACOLA  CLOUDY    39  32  76 N6        30.25R
MILTON         CLOUDY    35  31  85 N6        30.25R WCI  30
WHTNG S FIELD  CLOUDY    38  31  76 N7        30.26R


CITY           SKY/WX    TMP DP  RH WIND       PRES   REMARKS
WALNUT HILL*   NOT AVBL
JAY*             N/A     34  32  93 N6        30.26R WCI  29
DUKE FIELD     CLOUDY    35  31  83 N7        30.22S WCI  29
CRESTVIEW      CLOUDY    35  30  82 N5        30.25S WCI  31
VALPARAISO     MOCLDY    37  31  77 N12       30.21F
DESTIN         CLOUDY    39  32  76 N15G23    30.22S

$$

MSZ076-079-270900-
INTERIOR SOUTHEAST MISSISSIPPI

CITY           SKY/WX    TMP DP  RH WIND       PRES   REMARKS
LEAKESVILLE*     N/A     32  30  93 N3        30.30R
AGRICOLA*      NOT AVBL

$$

MARINE OBSERVATIONS

STATION/POSITION TIME  TEMP    WIND        PRES    WAVE
                       AIR SEA DIR/SP/G            HT/PER
                 (UTC) (F)     (DEG/KT/KT) (MB)    (FT/S)
PASCAGOULA       0800   38     360/ 10/ 14 1025.4R
PETIT BOIS ISLND 0800   41      20/ 16/ 22 1025.5R
GRAND BAY        0700   39      20/  9     1025.0S
KATRINA CUT      0700   40      20/ 16     1025.4R
CEDAR POINT      0700   38     360/ 11     1024.7R
E DAUPHIN ISLAND 0700   43      20/ 20/ 22 1024.1R
MIDDLE BAY LIGHT 0700   41      20/ 21     1023.7S
USCG MOBILE BAY  0800   37 53  350/  9/ 12 1024.5R
STATE DOCKS      0800      48              1025.2R
MEAHER PARK      0700   38     360/  6     1025.7R
WEEKS BAY        0700   39                   N/A
FORT MORGAN      0800   41      40/ 19/ 23 1024.2R
12 S ORANGE BCH  0800   44 62   20/ 19/ 23 1023.4R   3/ 4
PENSACOLA BAY    0800      53   10/  6/  8 1024.5R
64 S DAUPHIN ISL 0737   50 64   40/ 19/ 25 1023.3R   5/ 6
67 S FORT MORGAN 0700   51      30/ 19     1022.0F

$$

SELECTED LOCATIONS ACROSS THE REGION

CITY           SKY/WX    TMP DP  RH WIND       PRES   REMARKS
NEW ORLEANS    MOCLDY    38  31  76 N16       30.32R
GULFPORT       PTCLDY    35  29  78 N12       30.30R WCI  27
PASCAGOULA AP  PTCLDY    37  30  75 N13       30.30R
PASCAGOULA*    NOT AVBL
HATTIESBURG    CLOUDY    33  29  85 NW6       30.33R WCI  28
LAUREL         PTCLDY    32  27  80 N5        30.32R WCI  27
MERIDIAN       PTCLDY    32  27  81 N13       30.33R WCI  22
JACKSON        CLOUDY    33  27  78 N14       30.37R WCI  23
MONTGOMERY     CLEAR     32  29  88 NW7       30.28R WCI  26
TROY           PTCLDY    31  28  89 NW3       30.24S
KINSTON*       NOT AVBL
GENEVA*          N/A     36  32  87 CALM      30.25F
ASHFORD*         N/A     32  30  93 N5        30.23R WCI  27
DOTHAN         CLOUDY    36  32  85 N5        30.24F
PANAMA CITY    CLOUDY    39  34  82 N8        30.20R

$$




USA.gov is the U.S. government's official web portal to all federal, state and local government web resources and services.